Cloud_Cover
0 0 0 0 0 0 0 0 0 0 0 0 5 3 14 48 99 97 100 100 100 100 80 5 29 76 28 5 5 5 3 4 5 5 3 100 97 6 5 5 5 5 5 2 0 12 5 5 5
0 0 0 0 0 0 1 0 3 2 59 28 1 6 2 44 87 92 99 100 99 90 98 79 80 5 5 5 5 5 5 5 5 3 5 99 100 92 5 5 58 5 5 3 3 5 4 52 45
0 0 0 0 0 1 5 0 5 11 100 27 2 1 82 91 85 94 88 94 100 100 100 100 91 5 5 36 98 56 24 78 7 8 8 100 43 93 5 18 35 5 5 5 34 17 5 46 82
0 0 0 0 0 0 0 0 92 97 100 32 0 22 100 100 100 100 100 98 100 100 100 100 100 81 18 95 93 100 100 85 6 99 87 97 94 76 68 69 63 37 37 9 21 5 19 5 99
0 0 0 0 0 0 0 61 96 52 100 46 2 2 100 100 100 100 100 100 100 100 88 100 98 67 91 64 100 100 39 43 91 100 100 100 98 100 100 96 44 100 44 6 56 94 100 75 5
0 0 0 0 0 0 0 21 5 100 92 44 13 33 100 100 100 100 100 100 100 100 100 100 100 100 100 100 97 35 68 89 100 100 100 100 99 98 95 7 55 89 24 24 50 42 84 89 6
0 0 0 0 27 45 0 85 26 100 73 96 19 64 98 100 100 100 100 100 100 100 100 100 100 100 100 100 100 100 100 100 100 100 100 100 100 100 72 82 44 24 6 97 47 96 74 5 2
0 0 60 28 44 47 62 86 72 100 100 47 4 22 94 100 100 100 100 100 100 100 100 100 100 100 100 100 100 100 100 100 100 100 100 98 100 94 100 88 44 7 32 99 93 50 5 5 0
0 1 88 12 2 0 57 95 100 95 100 100 8 75 78 100 100 71 100 100 100 100 100 100 100 100 100 100 100 100 100 100 100 100 100 100 100 100 100 100 95 64 91 81 5 5 9 10 2
0 0 12 11 82 95 74 74 92 78 100 98 83 100 100 100 100 100 100 100 100 100 100 100 100 100 100 100 100 100 100 100 100 100 100 100 100 100 100 100 100 85 5 31 10 31 96 58 18
0 7 0 2 7 7 100 100 100 92 100 100 99 100 100 100 100 100 100 100 100 100 100 100 100 100 100 100 100 100 100 100 100 100 100 100 100 100 100 100 100 95 73 99 100 84 96 78 94
3 14 93 23 4 38 79 100 100 100 100 100 100 100 100 100 100 100 100 100 100 100 100 100 100 100 100 100 100 100 100 100 100 100 100 100 100 100 100 100 100 100 100 100 100 100 100 100 68
2 4 70 59 77 84 30 98 100 100 100 100 100 100 100 98 96 100 92 99 100 100 100 100 100 100 100 100 100 100 100 100 100 100 100 100 100 100 100 100 87 100 96 100 100 100 100 96 100
0 5 5 83 100 100 100 100 100 100 100 100 100 100 100 100 100 97 100 100 100 100 100 100 100 100 100 100 100 100 100 100 100 100 100 100 100 100 100 100 100 100 98 61 73 100 100 98 68
0 38 0 98 100 100 100 100 100 100 100 100 100 100 100 100 100 100 100 100 100 100 100 100 100 100 100 100 100 100 100 100 100 100 100 100 100 100 100 100 100 97 100 100 100 100 100 100 100
0 39 98 100 99 99 71 100 94 79 100 72 89 54 45 100 100 100 100 100 100 100 95 100 100 100 100 100 100 100 100 100 100 100 100 100 100 100 100 100 98 100 100 100 100 100 100 100 84
1 100 93 66 100 98 45 16 99 71 99 59 88 98 58 16 100 100 100 100 100 100 100 100 100 100 100 100 100 100 100 100 100 100 100 100 100 100 100 94 100 100 100 100 100 100 100 92 6
100 100 90 100 50 64 65 76 41 50 88 100 84 99 100 99 100 100 100 100 100 100 100 100 100 100 100 100 100 100 100 100 100 100 100 100 100 100 100 100 100 100 99 99 30 17 8 2 3
0 2 100 53 5 5 7 61 100 54 55 82 100 100 100 100 100 100 100 100 100 100 100 100 100 91 100 100 100 100 100 100 100 100 100 100 100 100 100 100 100 100 99 5 5 5 4 0 5
0 0 23 9 6 9 91 99 85 82 53 100 6 59 100 55 100 100 100 88 100 100 100 100 100 100 95 100 100 100 100 100 100 100 100 100 100 100 100 98 82 5 2 5 5 7 5 5 5
0 25 9 24 58 96 82 80 81 49 85 80 80 96 100 13 100 51 100 32 99 100 100 70 18 16 28 87 73 74 94 100 100 100 100 100 100 100 52 6 5 5 5 5 8 15 5 34 30
5 2 3 30 100 100 100 100 100 100 100 50 85 100 100 100 47 100 100 81 38 100 64 97 100 88 16 5 7 68 42 62 9 95 100 67 34 19 6 6 12 54 51 95 100 77 68 97 55
72 5 6 100 93 100 100 100 58 98 23 15 41 100 100 58 66 73 100 98 100 100 97 100 100 100 98 100 100 100 100 100 61 64 98 72 78 89 76 48 100 100 100 92 99 67 100 44 70
0 5 5 54 50 98 100 100 100 91 22 8 66 100 100 93 50 61 64 71 30 25 32 6 23 64 56 39 16 93 83 89 52 48 100 100 63 96 100 100 100 82 96 91 94 100 100 100 75
5 2 99 100 95 100 100 100 100 100 38 54 11 53 62 100 83 100 100 100 24 5 5 5 98 100 99 72 13 26 90 97 100 100 100 100 100 100 100 100 99 100 100 100 100 100 100 100 99
25 6 87 100 97 100 100 100 100 99 100 100 39 21 73 79 85 54 40 48 13 24 24 5 96 100 84 14 67 95 100 45 100 100 100 100 100 100 100 100 100 100 100 100 100 100 100 99 46
16 2 89 83 99 96 73 100 100 97 69 95 5 5 72 7 89 100 41 5 5 5 88 42 75 100 92 100 86 48 99 100 100 100 100 100 100 100 100 100 100 100 100 100 100 100 100 90 79
72 75 10 22 97 100 100 100 100 94 77 98 45 27 63 70 47 99 44 10 21 28 6 5 5 84 100 100 80 74 75 97 100 100 100 100 100 100 94 100 100 100 100 100 100 100 75 100 65
84 30 6 74 20 100 97 100 100 90 17 5 78 95 100 100 100 99 99 100 5 5 4 2 0 70 100 100 48 86 100 99 100 100 100 100 100 100 100 100 100 100 100 100 100 100 100 100 100
98 100 92 99 84 4 18 100 100 70 23 6 67 99 100 100 100 100 100 100 65 58 4 1 0 5 99 100 19 62 100 100 100 100 100 100 100 100 100 100 100 100 100 100 100 100 94 100 100